Flag Weather past 2 weeks in Navi Mumbai, Maharashtra, India

Now
79 °F

Haze.


Feels Like: 80 °F
Forecast: 68 / 98 °F
Wind: 3 mph from East

Location: Bombay / Santacruz

Current Time: Nov 26, 2014 at 8:41:34 AM

Latest Report: Nov 26, 2014 at 7:40 AM


Visibility: 1 mi

Pressure: 29.86 "Hg

Humidity: 58%

Dew point: 63 °F

Location of Navi MumbaiLocation

Historic Weather in Navi Mumbai — Graph

°F

Navi Mumbai temperature yesterday

Maximum temperature yesterday: 93 °F (at 2:40 PM)
Minimum temperature yesterday: 79 °F (at 5:10 AM)
Average temperature yesterday: 85 °F

Past Weeks' High & Low Weather Summary

 TemperatureHumidityPressure
High95 °F (Nov 12, 12:40 PM)84% (Nov 12, 4:10 AM)29.98 "Hg (Nov 12, 4:10 AM)
Low75 °F (Nov 22, 5:40 AM)26% (Nov 25, 2:40 PM)29.77 "Hg (Nov 11, 1:40 PM)
Average85 °F61%29.88 "Hg
* Reported Nov 11 6:40 AM — Nov 26 7:10 AM, Navi Mumbai, Weather by CustomWeather, © 2014

Note: Actual official high and low records may vary slightly from our data, if they occured in-between our weather recording intervals... More about our weather records

Advertising

Navi Mumbai weather history for previous 24 hours

 ConditionsComfort  
Time TempWeatherWind HumidityBarometerVisibility
7:10 AM
Nov 26
77 °FHaze.5 mph61%29.86 "Hg1 mi
6:10 AM77 °FHaze.5 mph65%29.83 "Hg1 mi
5:40 AM77 °FHaze.5 mph69%29.83 "Hg1 mi
5:10 AM77 °FHaze.6 mph69%29.83 "Hg1 mi
4:10 AM77 °FHaze.8 mph74%29.83 "Hg1 mi
3:40 AM77 °FHaze.5 mph74%29.83 "Hg1 mi
3:10 AM79 °FHaze.2 mph74%29.83 "Hg1 mi
2:40 AM81 °FHaze.5 mph70%29.83 "Hg1 mi
2:10 AM79 °FHaze.2 mph70%29.86 "Hg1 mi
1:40 AM79 °FHaze.5 mph70%29.86 "Hg1 mi
1:10 AM81 °FHaze.5 mph70%29.86 "Hg1 mi
12:10 AM82 °FHaze.2 mph58%29.89 "Hg1 mi
11:40 PM
Nov 25
82 °FHaze.3 mph66%29.89 "Hg1 mi
11:10 PM82 °FHaze.5 mph66%29.89 "Hg1 mi
10:40 PM82 °FHaze.6 mph66%29.89 "Hg1 mi
9:40 PM84 °FHaze.3 mph62%29.89 "Hg1 mi
9:10 PM84 °FHaze.6 mph62%29.89 "Hg1 mi
8:40 PM84 °FHaze.7 mph62%29.89 "Hg1 mi
8:10 PM84 °FClear.9 mph62%29.89 "Hg1 mi
7:40 PM84 °FClear.9 mph62%29.86 "Hg1 mi
7:10 PM84 °FClear.8 mph62%29.86 "Hg1 mi
6:40 PM86 °FClear.7 mph59%29.86 "Hg1 mi
6:10 PM88 °FClear.6 mph55%29.83 "Hg1 mi
5:40 PM88 °FClear.7 mph52%29.83 "Hg1 mi
5:10 PM90 °FClear.7 mph49%29.83 "Hg1 mi
4:40 PM90 °FClear.9 mph52%29.83 "Hg1 mi
3:40 PM93 °FClear.5 mph26%29.83 "Hg1 mi
3:10 PM93 °FClear.7 mph26%29.83 "Hg1 mi
2:40 PM93 °FClear.6 mph26%29.83 "Hg1 mi
1:40 PM91 °FClear.7 mph32%29.86 "Hg1 mi
1:10 PM91 °FClear.5 mph32%29.86 "Hg1 mi
12:40 PM91 °FClear.9 mph32%29.89 "Hg1 mi
12:10 PM90 °FClear.7 mph36%29.89 "Hg1 mi
11:10 AM88 °FClear.8 mph40%29.95 "Hg1 mi
10:40 AM88 °FClear.9 mph38%29.95 "Hg1 mi
10:10 AM88 °FClear.7 mph38%29.95 "Hg1 mi
9:10 AM82 °FClear.9 mph45%29.95 "Hg1 mi
8:40 AM82 °FClear.10 mph45%29.95 "Hg1 mi
8:10 AM81 °FClear.12 mph48%29.92 "Hg1 mi
Weather by CustomWeather, © 2014

See weather overviewHow to use our weather pages